DW8548 Weather Reports


time (UTC)temp
C
wind
direction
speed
KPH
gust
KPH
rain 1hr
cm
rain 24hr
cm
rain mn
cm
humidity
%
barometer
mb
20260902030108 16 205 3.2 12.9 0.00 0.00 0.00 69 1022.6
20260902024601 16 343 1.6 11.3 0.00 0.00 0.00 71 1022.7
20260902023101 16 254 6.4 14.5 0.00 0.00 0.00 70 1022.7
20260902021603 16 277 4.8 16.1 0.00 0.00 0.00 72 1022.8
20260902014600 16 274 4.8 14.5 0.00 0.00 0.00 69 1022.7
20260902013110 15 261 3.2 12.9 0.00 0.00 0.00 72 1022.7
20260902011602 16 261 4.8 16.1 0.00 0.00 0.00 67 1022.5
20260902010105 16 246 3.2 11.3 0.00 0.00 0.00 65 1022.5
20260902004607 16 302 3.2 16.1 0.00 0.00 0.00 63 1022.4
20260902003106 15 248 3.2 6.4 0.00 0.00 0.00 65 1022.3
20260902001605 14 0 0.0 4.8 0.00 0.00 0.00 71 1022.3
20260902000105 13 0 0.0 1.6 0.00 0.00 0.00 77 1022.1
20260901234609 13 0 0.0 0.0 0.00 0.00 0.00 77 1021.8
20260901233105 12 0 0.0 0.0 0.00 0.00 0.00 78 1021.7
20260901231616 12 0 0.0 0.0 0.00 0.00 0.00 79 1021.8
20260901230110 12 0 0.0 3.2 0.00 0.00 0.00 79 1022.1
20260901224605 12 0 0.0 1.6 0.00 0.00 0.00 78 1021.8
20260901223106 12 0 0.0 3.2 0.00 0.00 0.00 76 1021.6
20260901221612 12 0 0.0 1.6 0.00 0.00 0.00 73 1021.4
20260901220108 13 0 0.0 0.0 0.00 0.00 0.00 69 1021.4
20260901214601 13 0 0.0 1.6 0.00 0.00 0.00 65 1021.5
20260901213102 13 252 0.0 4.8 0.00 0.00 0.00 64 1021.4
20260901211603 13 0 0.0 4.8 0.00 0.00 0.00 66 1021.4
20260901204607 13 0 0.0 3.2 0.00 0.00 0.00 68 1021.3
20260901203102 13 0 1.6 6.4 0.00 0.00 0.00 68 1021.3
20260901201601 13 259 3.2 6.4 0.00 0.00 0.00 68 1021.4
20260901194606 13 0 0.0 1.6 0.00 0.00 0.00 67 1021.5
20260901193104 13 0 0.0 4.8 0.00 0.00 0.00 68 1021.4
20260901191604 13 0 0.0 3.2 0.00 0.00 0.00 68 1021.6
20260901190104 13 0 0.0 1.6 0.00 0.00 0.00 69 1021.7
20260901184607 13 0 0.0 3.2 0.00 0.00 0.00 69 1021.9
20260901183121 13 0 0.0 1.6 0.00 0.00 0.00 71 1022.0
20260901181602 12 0 0.0 1.6 0.00 0.00 0.00 75 1022.0
20260901180105 12 0 0.0 1.6 0.00 0.00 0.00 78 1022.1
20260901174606 12 0 0.0 0.0 0.00 0.00 0.00 80 1022.1
20260901173151 12 0 0.0 0.0 0.00 0.00 0.00 82 1022.2
20260901171606 12 0 0.0 0.0 0.00 0.00 0.00 82 1022.2
20260901170108 12 0 0.0 0.0 0.00 0.00 0.00 81 1022.2
20260901164610 12 0 0.0 0.0 0.00 0.00 0.00 80 1022.2
20260901163119 12 0 0.0 0.0 0.00 0.00 0.00 80 1022.3
20260901161607 12 0 0.0 0.0 0.00 0.00 0.00 79 1022.4
20260901160104 12 0 0.0 1.6 0.00 0.00 0.00 80 1022.5
20260901154606 12 0 0.0 1.6 0.00 0.00 0.00 81 1022.6
20260901153103 12 206 0.0 1.6 0.00 0.00 0.00 79 1022.6
20260901151602 12 0 0.0 0.0 0.00 0.00 0.00 79 1022.6
20260901150107 12 0 0.0 0.0 0.00 0.00 0.00 78 1022.7
20260901144606 12 0 0.0 0.0 0.00 0.00 0.00 80 1022.9
20260901143109 12 0 0.0 0.0 0.00 0.00 0.00 79 1023.1
20260901141614 12 0 0.0 0.0 0.00 0.00 0.00 80 1023.2
20260901140106 12 0 0.0 0.0 0.00 0.00 0.00 80 1023.4
20260901134606 13 0 0.0 0.0 0.00 0.00 0.00 78 1023.4
20260901133106 13 0 0.0 0.0 0.00 0.00 0.00 75 1023.5
20260901131601 13 0 0.0 0.0 0.00 0.00 0.00 76 1023.5
20260901130107 13 0 0.0 0.0 0.00 0.00 0.00 75 1023.5
20260901124605 13 0 0.0 0.0 0.00 0.00 0.00 74 1023.6
20260901123105 13 0 0.0 0.0 0.00 0.00 0.00 74 1023.5
20260901121604 13 0 0.0 0.0 0.00 0.00 0.00 73 1023.6
20260901120110 13 0 0.0 0.0 0.00 0.00 0.00 73 1023.5
20260901114621 13 0 0.0 0.0 0.00 0.00 0.00 72 1023.4
20260901113107 13 0 0.0 0.0 0.00 0.00 0.00 71 1023.5
20260901111609 13 0 0.0 0.0 0.00 0.00 0.00 71 1023.5
20260901110108 13 0 0.0 0.0 0.00 0.00 0.00 71 1023.3
20260901104605 13 0 0.0 3.2 0.00 0.00 0.00 71 1023.2
20260901103104 13 206 0.0 1.6 0.00 0.00 0.00 70 1023.3
20260901101609 13 0 0.0 1.6 0.00 0.00 0.00 69 1023.4
20260901100111 14 0 0.0 3.2 0.00 0.00 0.00 68 1023.3
20260901094602 14 0 0.0 3.2 0.00 0.00 0.00 68 1023.2
20260901093104 15 194 0.0 1.6 0.00 0.00 0.00 67 1023.3
20260901091606 15 0 0.0 3.2 0.00 0.00 0.00 65 1023.3
20260901090105 15 0 0.0 4.8 0.00 0.00 0.00 64 1023.5
20260901084626 15 0 0.0 6.4 0.00 0.00 0.00 61 1023.4
20260901083103 16 270 0.0 4.8 0.00 0.00 0.00 59 1023.2
20260901081603 16 121 0.0 4.8 0.00 0.00 0.00 58 1023.1
20260901080114 16 247 1.6 6.4 0.00 0.00 0.00 57 1023.0
20260901074616 16 227 1.6 9.7 0.00 0.00 0.00 57 1023.0
20260901073108 17 0 1.6 11.3 0.00 0.00 0.00 55 1023.0
20260901071608 17 210 1.6 12.9 0.00 0.00 0.00 54 1023.1
20260901070103 17 272 3.2 9.7 0.00 0.00 0.00 53 1023.0
20260901064604 17 267 1.6 11.3 0.00 0.00 0.00 52 1023.1
20260901063105 17 182 1.6 12.9 0.00 0.00 0.00 52 1023.0
20260901061605 17 205 3.2 9.7 0.00 0.00 0.00 52 1023.1
20260901060105 17 0 1.6 9.7 0.00 0.00 0.00 52 1023.2
20260901054602 17 267 3.2 9.7 0.00 0.00 0.00 51 1023.5
20260901053114 17 248 1.6 8.0 0.00 0.00 0.00 51 1023.5
20260901051614 17 185 1.6 11.3 0.00 0.00 0.00 51 1023.7
20260901050108 17 247 1.6 6.4 0.00 0.00 0.00 51 1023.8
20260901044605 17 238 1.6 9.7 0.00 0.00 0.00 51 1023.8
20260901043109 17 245 1.6 9.7 0.00 0.00 0.00 52 1023.9
20260901041622 17 245 3.2 6.4 0.00 0.00 0.00 48 1024.1
20260901040138 17 158 1.6 4.8 0.00 0.00 0.00 49 1024.2
20260901034611 17 71 0.0 8.0 0.00 0.00 0.00 51 1024.4
20260901033106 17 207 1.6 11.3 0.00 0.00 0.00 52 1024.5
20260901031604 17 180 1.6 6.4 0.00 0.00 0.00 53 1024.6